GFSSGP_250_spd_198.txt.gz
Wind_Speed
7 7 9 7 4 5 7 10 8 6 6 11 10 7 4 2 3 3 8 13 20 24 30 35 35 35 40 43 45 50 51 48 47 40 27 19 15 11 11 14 6 6 10 9 8 8 7 4 7
9 9 9 12 16 11 12 14 9 6 5 8 10 6 5 6 6 4 10 15 24 27 31 35 36 39 40 45 48 50 46 45 38 24 21 22 17 11 7 10 5 5 10 10 11 9 6 6 7
13 13 18 22 23 16 16 17 14 13 12 8 7 4 3 6 8 7 10 19 22 28 31 36 38 39 42 44 45 44 42 35 21 21 22 22 9 6 9 12 12 6 7 10 10 7 7 9 11
18 17 25 26 17 18 18 19 16 10 13 9 7 1 4 9 10 11 16 21 24 27 28 35 41 40 42 42 41 39 33 21 21 21 19 22 14 7 11 14 9 10 10 11 8 7 9 8 9
22 21 13 20 36 22 23 17 18 14 14 10 6 5 6 10 12 16 17 20 25 26 30 37 44 41 41 40 37 33 21 21 21 22 18 18 17 13 11 9 7 7 8 7 6 8 11 9 6
34 17 28 23 26 28 23 22 19 18 16 16 14 10 9 13 16 19 18 24 28 32 33 39 45 43 40 35 34 22 21 22 23 24 21 23 23 19 17 13 10 12 10 10 12 15 12 10 8
40 13 20 35 22 23 27 22 22 22 23 21 21 18 21 17 23 23 23 24 29 33 36 39 43 42 36 34 21 20 22 24 26 27 26 27 24 21 22 21 19 17 18 15 15 14 10 9 11
45 46 30 23 22 24 27 24 26 24 25 28 25 25 26 26 23 25 26 25 29 33 36 40 41 37 33 30 18 19 23 25 26 31 38 28 23 29 23 28 23 17 16 16 16 14 10 12 12
43 44 38 29 31 28 28 31 32 27 24 29 29 28 30 30 28 28 26 27 30 33 33 39 36 32 29 16 18 20 22 24 28 37 18 30 25 21 19 25 24 21 19 18 18 15 17 15 18
47 45 44 35 34 35 35 35 33 32 33 30 31 28 30 32 31 28 23 28 32 32 33 35 32 28 19 14 17 20 21 26 35 30 39 37 22 28 31 31 31 26 21 20 20 16 14 15 17
48 43 41 39 36 37 39 38 36 34 31 32 31 27 28 30 31 26 25 27 30 30 34 31 27 21 12 14 16 18 24 32 38 35 32 29 25 25 29 28 25 27 22 17 15 20 20 11 13
47 42 41 39 38 37 37 36 37 36 29 29 26 27 28 29 26 24 25 28 30 30 28 26 23 11 10 12 14 19 27 15 30 34 33 29 27 23 30 34 34 35 28 19 15 19 24 21 27
46 43 42 40 40 38 38 37 38 36 34 28 28 28 27 25 24 24 26 27 24 25 24 20 14 9 9 10 14 22 26 28 28 32 34 38 41 25 46 41 41 35 31 26 19 16 10 12 18
46 45 43 41 41 38 38 38 37 36 36 33 32 30 26 23 22 22 24 21 22 21 17 16 6 4 6 10 17 21 24 27 30 32 36 41 45 41 44 45 45 40 31 29 24 21 17 15 14
39 44 43 44 41 37 37 36 35 35 35 34 30 26 24 24 22 19 22 21 23 15 13 8 3 1 4 12 17 22 26 30 33 35 38 41 47 44 45 48 53 45 36 30 28 29 27 26 19
45 46 44 42 43 39 31 23 32 34 37 33 27 24 22 23 20 21 22 20 17 9 8 3 0 4 7 14 18 23 29 31 33 36 39 42 45 44 58 51 53 47 40 34 31 28 31 31 28
42 39 35 41 40 35 33 36 39 33 38 35 31 28 23 24 23 20 19 18 11 6 4 3 7 8 11 14 18 24 27 29 33 37 40 44 43 48 49 53 56 54 45 35 33 31 32 31 30
39 36 35 41 40 37 38 40 39 18 12 32 28 30 27 26 25 19 18 14 8 6 6 9 10 11 12 15 19 23 26 29 33 36 39 44 44 40 52 58 58 57 47 41 33 33 34 33 32
26 31 13 33 36 32 30 36 44 41 38 29 30 30 28 29 21 19 17 14 10 11 10 13 14 11 10 15 18 22 24 28 31 35 38 43 48 47 46 57 60 60 50 37 33 33 33 33 32
34 22 29 22 43 44 39 36 35 35 35 31 29 29 28 24 19 17 19 14 14 15 15 18 16 12 10 14 16 19 24 27 30 33 37 42 46 50 48 54 61 61 57 43 33 30 31 30 28
36 37 41 41 32 40 35 35 33 33 31 26 25 24 22 20 19 20 19 17 18 16 19 19 15 12 10 11 14 17 22 26 29 32 35 39 43 49 53 52 59 62 60 48 34 29 29 30 29
42 44 33 35 31 32 27 25 24 25 24 22 20 21 23 22 23 26 21 21 22 22 22 19 15 11 8 9 12 16 20 24 28 31 32 36 41 46 50 53 57 59 61 56 41 30 26 26 27
33 31 27 27 28 24 23 19 21 19 21 21 21 23 24 24 28 26 23 27 26 26 23 19 14 9 6 8 11 16 20 24 28 31 30 35 39 43 47 53 52 60 61 59 44 35 27 25 27
38 34 30 27 25 22 21 18 25 19 15 19 22 24 27 29 29 25 29 32 28 29 25 20 14 9 5 7 10 15 19 24 27 31 32 34 38 41 43 50 53 56 60 61 56 40 31 29 29
38 33 31 29 27 28 28 26 22 16 21 20 23 26 30 33 34 31 36 35 33 32 27 21 16 10 6 5 8 12 17 22 27 31 34 34 37 39 40 46 50 56 59 62 62 52 39 33 33
36 32 33 35 30 34 29 29 22 20 24 25 35 28 33 34 37 36 38 37 33 31 26 21 16 11 7 4 6 10 15 21 26 31 34 34 36 39 41 43 48 49 56 60 63 62 48 39 37
41 36 40 38 35 33 30 26 23 37 35 37 38 33 35 36 40 44 42 40 35 32 27 21 16 12 7 2 4 9 14 19 24 29 32 34 35 39 40 45 47 47 55 59 63 62 58 45 38
44 45 43 36 35 34 32 23 27 38 40 30 28 34 35 40 45 48 45 41 37 33 27 22 17 14 9 4 4 8 12 17 21 26 31 34 35 38 41 45 48 48 51 56 63 62 62 52 42
44 41 40 40 37 34 29 28 30 32 38 37 37 38 36 45 49 50 47 43 38 34 28 24 20 16 10 6 6 8 11 15 20 24 29 34 35 36 38 42 46 50 50 55 61 61 62 61 49
44 44 44 38 32 32 41 29 11 28 30 38 38 40 43 47 51 51 49 44 40 36 31 26 22 18 12 9 9 10 12 16 19 23 29 33 35 36 36 45 45 48 51 53 58 62 63 64 58

GFSSGP_250_spd_201.txt.gz
Wind_Speed
18 17 10 2 5 4 12 10 9 10 12 8 9 6 1 5 9 9 10 12 21 28 32 32 38 48 45 45 47 45 40 29 27 28 25 24 14 9 7 9 6 2 6 7 7 7 8 6 6
16 13 3 7 14 8 8 7 8 9 6 6 4 1 6 7 8 11 13 16 25 29 33 34 39 45 47 47 45 40 29 28 28 26 23 23 19 13 9 10 12 3 5 5 8 8 6 4 5
19 13 10 26 13 12 13 14 11 9 8 7 5 7 2 5 10 9 16 20 24 29 34 38 42 45 49 46 40 29 30 30 28 26 25 22 20 17 15 12 11 8 10 7 8 4 5 5 4
18 11 3 13 11 14 13 15 10 11 16 9 9 5 1 5 12 16 21 21 24 32 36 38 41 45 48 41 29 28 29 28 28 26 24 22 20 18 19 16 11 11 9 7 4 4 5 3 6
10 13 20 6 30 21 18 18 14 13 15 13 9 7 7 6 12 18 26 26 29 32 35 40 41 45 43 37 25 28 27 27 27 26 27 25 23 18 18 15 10 11 12 8 6 4 7 4 3
4 15 19 27 12 26 24 21 18 14 15 13 10 11 14 12 19 25 26 28 30 33 36 39 41 43 38 30 27 27 26 27 24 26 31 22 24 23 22 23 15 12 11 9 7 8 8 4 6
15 13 19 16 15 22 28 28 24 20 19 17 15 14 17 24 26 28 29 29 31 31 37 37 41 39 34 24 28 25 26 28 30 24 26 23 24 27 24 24 19 16 13 12 9 8 6 6 6
40 28 16 12 16 25 27 27 22 20 21 20 17 20 22 21 29 32 30 30 30 31 34 36 39 34 26 24 24 24 29 25 31 31 30 30 31 22 27 31 23 18 13 10 8 11 11 7 8
47 30 29 27 26 24 22 22 26 23 23 22 19 22 21 23 29 30 29 28 27 30 33 36 35 29 21 23 21 22 25 31 31 32 26 17 21 22 28 29 27 23 21 16 13 13 11 8 6
47 44 42 41 41 36 25 26 25 26 24 22 23 26 25 25 29 26 27 27 27 30 32 32 30 24 19 20 20 15 26 29 33 28 26 23 18 31 29 31 26 20 19 19 14 8 9 3 4
47 47 49 49 44 33 29 27 27 29 27 28 27 29 26 25 27 25 23 23 26 30 29 30 25 17 17 18 18 19 18 23 28 29 30 28 18 32 37 34 27 22 16 15 15 17 17 17 13
48 49 44 46 45 34 33 31 29 30 28 32 31 24 23 21 23 25 20 22 27 25 26 25 19 14 15 15 16 19 21 22 27 30 33 28 29 45 46 41 37 27 21 12 3 9 15 18 17
49 48 48 45 43 33 33 30 31 30 29 29 25 22 21 23 22 22 18 20 22 24 26 18 12 13 11 13 18 20 23 28 29 33 34 45 30 40 40 45 42 32 27 23 20 13 4 2 2
47 49 50 45 44 36 35 31 30 30 29 28 26 26 28 26 25 21 17 17 21 23 20 13 8 10 8 14 17 22 25 30 32 33 34 38 39 46 45 47 45 30 23 25 26 25 18 14 15
49 51 52 48 44 37 35 34 30 32 29 27 26 25 25 26 19 15 12 16 21 21 12 7 6 7 8 13 16 20 28 31 33 37 36 32 42 52 51 52 43 34 26 26 26 26 24 21 20
51 52 49 47 44 41 38 36 34 32 26 25 29 26 25 22 18 14 13 17 17 16 6 2 4 7 9 12 15 22 26 30 34 39 42 37 40 45 52 53 44 36 30 28 29 30 28 25 25
51 53 52 48 47 43 44 42 38 33 30 25 26 27 27 21 18 14 14 17 17 10 1 2 6 9 9 11 16 21 25 29 32 38 42 44 38 43 55 57 49 38 34 31 28 28 28 29 29
51 49 49 48 45 42 43 44 41 36 30 24 32 37 27 25 22 18 17 17 14 8 5 5 9 11 9 11 15 20 23 28 31 34 39 44 43 51 57 58 55 43 37 33 31 29 29 29 30
48 44 41 39 40 41 44 47 42 36 30 27 11 12 24 24 23 20 19 18 12 9 9 9 12 12 9 10 15 19 22 26 28 31 35 39 45 45 53 57 56 54 41 32 30 28 27 29 30
42 35 37 27 37 36 38 41 38 36 36 39 34 32 27 25 22 22 20 17 13 13 12 13 14 12 11 10 15 18 22 25 26 28 31 35 41 46 49 56 56 56 47 36 28 24 24 24 26
39 37 40 37 32 32 34 34 37 32 27 32 35 32 27 25 24 23 22 16 15 16 15 17 15 12 10 9 13 16 20 24 25 26 29 33 35 39 47 53 56 56 53 46 31 22 20 20 22
43 46 43 29 35 34 41 38 35 38 36 34 30 30 27 27 25 24 23 21 18 20 20 20 16 13 9 9 12 15 19 22 26 26 28 32 33 38 42 46 53 52 54 49 41 30 21 21 22
48 52 57 49 45 40 34 29 37 38 31 27 29 28 26 27 23 24 25 22 23 22 23 22 18 13 8 8 10 13 16 21 24 28 28 31 32 36 39 40 47 53 53 53 50 40 30 25 24
52 48 50 48 43 38 37 34 34 30 27 23 22 22 24 24 23 27 25 23 25 25 27 24 19 13 8 7 9 10 14 19 23 27 28 29 31 34 35 41 43 46 53 53 53 50 43 33 30
51 52 47 40 31 34 38 36 29 30 25 25 18 11 15 21 24 26 27 27 30 29 29 25 19 13 8 6 6 8 12 16 21 27 29 29 31 34 36 40 41 43 49 53 54 54 51 45 35
48 45 43 39 33 36 35 30 23 23 28 24 20 18 16 15 25 28 28 27 31 30 31 26 20 14 9 6 4 6 10 14 20 25 29 31 31 33 40 40 40 44 46 50 54 54 55 51 48
49 42 43 41 40 39 34 32 29 29 24 24 31 26 26 20 24 33 30 30 33 33 32 26 21 15 12 7 2 3 8 13 18 23 28 32 33 28 33 42 40 43 45 48 51 54 56 57 53
52 51 46 41 41 38 33 31 30 34 36 38 34 32 33 25 32 37 34 34 36 36 33 28 23 18 13 9 4 2 6 12 17 21 26 30 32 34 30 36 39 43 47 48 48 52 55 57 58
54 48 45 47 46 38 33 34 35 39 40 40 47 40 34 22 31 36 37 39 40 38 37 32 26 20 16 12 7 4 7 11 15 20 24 27 30 33 37 38 40 41 45 48 50 50 55 57 58
53 51 51 47 43 38 39 35 35 37 45 46 50 39 26 26 37 38 41 43 43 42 38 34 27 22 19 15 11 7 8 11 14 19 23 26 29 32 36 39 41 43 46 49 51 49 50 56 58

GFSSGP_250_spd_207.txt.gz
Wind_Speed
20 12 14 6 8 5 6 3 9 9 10 7 5 4 4 9 10 15 19 27 30 34 37 41 43 46 35 31 28 27 25 26 25 24 23 21 21 18 15 12 10 8 7 6 9 6 9 8 8
18 12 7 6 10 5 8 14 13 12 9 6 3 3 5 8 9 13 21 28 35 38 37 41 43 43 29 28 27 27 27 20 21 20 20 21 19 20 21 17 14 11 7 8 9 8 4 5 6
14 11 5 14 11 14 18 14 14 13 9 6 4 2 5 7 9 12 23 29 34 37 39 43 42 37 29 27 29 27 28 25 17 17 23 25 19 18 22 21 17 11 9 8 7 6 2 4 5
21 20 9 14 4 9 22 10 12 10 5 6 4 2 3 9 14 19 24 30 34 36 40 41 42 31 30 26 30 30 28 25 17 20 20 23 25 19 20 22 18 13 10 8 5 6 6 6 5
23 17 13 20 16 13 10 10 13 10 8 9 5 4 7 15 18 22 26 29 33 35 38 39 40 27 29 26 27 29 30 26 27 27 26 23 25 24 22 21 19 14 11 12 11 9 9 8 8
27 20 16 20 18 24 16 17 17 17 12 8 6 7 13 17 19 22 27 29 32 33 37 40 35 26 28 26 23 29 33 32 32 30 28 25 21 25 26 24 17 14 11 10 14 15 14 13 9
28 22 29 28 32 22 15 17 19 20 11 10 8 12 14 17 20 23 24 28 31 32 33 40 31 26 26 26 26 30 32 34 33 30 22 32 25 26 25 23 15 12 12 8 12 14 13 13 11
27 21 13 23 28 27 19 18 18 21 15 12 12 16 19 21 22 22 23 28 31 31 31 36 28 25 24 24 25 29 29 31 34 29 28 33 37 32 30 17 19 14 9 10 14 14 13 11 13
26 27 19 18 25 21 16 16 21 20 19 15 19 20 20 22 23 21 22 26 29 28 30 32 25 24 23 24 26 28 27 29 30 31 33 38 43 33 25 19 19 10 4 5 12 14 14 10 12
31 31 35 28 24 26 17 17 19 23 23 19 17 17 19 20 20 20 22 25 28 26 29 28 23 21 22 23 24 26 30 31 28 29 36 42 36 29 25 22 19 18 9 4 4 3 8 7 8
35 39 38 31 29 27 20 20 20 21 20 18 18 16 21 21 18 18 20 24 23 24 27 25 19 18 19 20 21 26 31 35 36 36 47 45 36 31 30 29 23 26 26 10 6 6 3 1 3
40 38 41 35 34 36 34 29 27 25 18 16 18 19 19 17 10 16 18 20 23 22 24 21 16 15 15 16 18 26 33 36 35 39 50 46 39 32 31 33 33 33 27 21 10 3 3 4 5
45 48 46 41 41 37 29 32 37 35 28 32 24 23 20 18 12 15 18 21 18 19 21 17 13 12 13 14 18 27 33 37 40 41 48 47 41 36 35 36 37 30 27 28 27 19 10 2 9
57 51 51 49 49 44 40 36 35 39 41 35 26 23 18 15 13 17 19 16 14 16 17 13 10 9 10 13 18 25 32 36 39 40 46 51 45 37 37 37 37 34 29 29 26 25 21 18 16
60 54 56 53 53 50 44 43 43 43 38 34 25 22 20 16 12 15 16 12 11 13 14 9 6 6 9 11 18 23 30 31 36 42 46 54 44 40 36 37 38 40 38 35 33 33 31 26 24
58 57 57 54 52 49 48 47 45 39 34 27 24 25 23 17 17 13 13 10 9 12 10 4 3 4 7 10 16 20 26 29 31 37 43 48 48 42 40 36 35 33 36 35 32 30 29 28 27
55 56 58 56 56 51 48 44 42 37 32 29 28 25 21 20 21 15 12 10 9 10 6 1 1 2 4 9 14 18 23 27 31 34 38 44 48 43 45 40 34 32 31 32 32 29 25 25 23
58 54 54 52 54 50 47 45 43 40 36 34 31 26 21 21 22 18 15 13 11 10 5 4 4 3 2 7 13 17 21 23 29 32 35 41 45 47 46 43 41 36 32 31 31 28 27 25 25
57 57 55 54 54 52 50 49 47 43 41 36 31 30 24 21 25 24 23 17 15 12 9 7 8 5 2 4 11 16 20 22 28 27 36 38 41 44 46 50 45 43 41 38 32 29 30 29 28
57 58 61 58 57 56 53 51 54 47 42 38 35 31 27 18 16 14 17 17 17 15 12 11 10 8 4 3 9 16 19 21 24 27 30 33 36 40 44 46 47 47 46 41 40 39 33 31 31
57 59 62 62 60 59 57 54 53 45 39 36 36 34 31 26 23 14 16 18 18 17 14 16 14 11 7 2 8 15 18 20 20 26 32 32 30 35 38 40 41 44 46 47 47 45 42 39 37
52 58 60 60 58 59 57 56 53 48 45 40 37 36 33 32 33 32 28 21 19 17 19 20 19 15 10 5 8 14 19 19 17 19 23 27 29 31 35 37 39 40 39 40 41 44 46 43 38
48 54 56 55 55 56 56 55 54 50 44 43 39 37 38 36 33 30 27 25 21 19 22 24 22 18 13 8 7 13 18 20 20 26 27 24 27 30 32 35 37 39 41 42 41 39 42 45 47
53 51 50 49 51 53 56 55 50 47 43 43 40 39 39 38 35 31 28 26 23 23 27 27 24 21 16 11 8 10 14 17 19 23 24 26 26 28 32 33 34 35 37 40 43 43 40 41 44
49 47 45 45 43 49 51 49 48 41 42 42 41 39 38 37 34 31 33 30 26 31 34 31 28 23 18 13 10 8 10 13 15 18 21 22 25 29 32 33 35 36 37 39 41 42 44 40 41
49 48 44 43 48 47 45 46 44 40 40 38 36 35 37 36 35 34 31 30 29 32 36 34 31 25 20 15 11 8 6 9 11 12 16 18 21 26 29 32 35 37 40 40 40 41 44 45 45
50 43 52 51 53 50 44 44 39 36 34 32 35 35 32 31 33 27 30 28 30 36 37 38 34 28 22 18 14 10 6 4 5 8 12 15 19 22 25 29 33 36 39 41 42 43 43 46 48
51 54 52 49 50 47 43 48 44 37 34 33 29 27 30 32 29 29 32 29 32 36 37 37 35 31 24 21 17 12 8 5 2 4 8 12 16 20 24 27 30 34 39 42 43 45 46 46 48
55 52 47 47 51 45 40 42 45 44 35 38 29 33 35 36 33 31 31 30 33 36 37 39 37 34 30 25 20 16 11 8 3 3 6 10 15 18 22 26 30 34 38 42 43 45 46 48 49
58 57 55 45 47 46 44 47 51 48 42 41 33 40 41 36 35 33 32 30 32 36 40 42 39 37 32 27 24 20 14 11 8 7 8 9 12 18 22 26 30 34 37 40 44 45 46 47 50

GFSSGP_250_spd_210.txt.gz
Wind_Speed
16 12 9 5 8 7 3 9 3 6 9 7 3 5 7 8 11 17 23 31 36 38 41 38 38 33 30 28 29 29 31 22 19 21 21 22 16 17 17 14 9 5 7 7 6 4 6 8 6
17 14 7 9 6 8 6 7 6 6 4 3 3 6 8 11 14 19 24 31 37 37 39 38 38 30 29 26 30 33 33 25 21 27 24 24 16 18 14 14 12 7 8 7 9 7 5 5 4
18 13 4 15 15 12 10 9 8 7 4 4 5 6 10 13 19 24 26 30 36 38 37 38 36 30 31 29 28 32 32 26 23 23 21 20 19 17 16 14 13 9 7 6 6 6 6 3 2
19 14 5 10 7 8 11 14 4 9 8 12 10 9 14 18 21 23 27 32 35 37 35 38 35 32 32 33 30 33 34 34 28 23 20 25 22 17 18 17 15 9 7 8 6 4 4 2 3
23 15 10 14 12 9 4 9 3 12 13 13 12 9 15 20 22 24 29 32 34 36 35 37 34 33 32 33 35 35 36 34 30 25 25 30 27 21 20 18 18 12 8 9 10 7 6 3 2
26 24 20 18 15 14 17 14 13 14 14 13 10 10 17 20 23 26 31 29 33 35 34 36 32 33 33 33 36 37 36 36 32 31 34 33 30 23 17 18 18 12 7 12 14 14 10 7 5
27 28 23 22 24 21 20 20 12 11 14 15 10 14 20 23 27 26 30 28 32 33 34 34 31 30 32 35 36 37 37 34 36 36 37 31 30 25 19 11 11 9 4 13 13 14 13 10 8
29 30 33 28 24 27 25 19 16 20 15 19 12 16 21 26 27 26 26 27 30 33 34 32 29 28 31 33 36 38 40 42 40 43 39 32 31 27 22 18 12 9 6 9 9 9 8 6 6
35 31 31 30 27 25 26 28 23 18 15 19 16 17 24 25 25 23 26 26 29 31 32 30 27 27 30 32 34 38 39 40 42 45 39 35 34 35 28 27 18 16 5 6 6 5 2 2 3
34 36 31 23 20 28 29 22 19 15 18 21 17 17 23 25 26 26 24 23 28 29 30 27 25 26 29 29 32 38 41 42 45 41 39 38 37 35 34 32 25 14 14 11 12 7 3 0 2
35 36 35 31 26 24 33 26 19 16 15 19 18 15 20 24 24 24 22 21 27 25 27 24 22 23 25 26 30 36 41 41 49 44 40 40 39 41 36 37 36 30 22 19 19 17 14 10 6
42 41 37 34 33 29 30 29 24 16 18 20 14 16 21 24 20 19 20 22 25 23 24 21 19 20 22 25 28 35 40 42 46 43 40 40 43 46 46 43 41 41 38 30 18 11 7 10 10
46 44 43 39 38 34 31 29 29 22 18 20 20 20 31 26 23 19 20 21 22 20 21 18 16 17 20 23 27 34 37 41 45 43 44 39 41 43 48 46 43 42 39 33 30 26 24 23 21
53 46 48 46 47 40 35 32 30 27 23 27 26 30 33 22 22 20 19 19 18 17 19 15 13 13 17 21 25 32 37 38 44 44 44 41 38 40 42 44 42 42 41 39 36 33 30 28 27
58 51 52 49 48 44 37 39 36 33 25 29 35 31 31 20 20 19 19 17 14 15 16 13 9 11 14 19 23 29 35 37 42 45 44 46 40 36 35 36 37 37 37 35 33 30 28 27 27
59 58 55 53 49 48 44 45 47 43 34 34 36 31 26 21 18 18 19 16 11 13 14 10 7 8 11 17 21 25 32 35 39 42 48 47 45 43 41 38 37 37 35 33 29 28 27 27 28
59 60 59 58 55 54 54 53 50 47 43 40 38 35 25 21 20 18 14 14 11 12 11 6 2 6 9 14 19 22 28 30 35 40 45 51 49 46 43 42 39 37 35 34 32 30 28 29 28
60 61 63 64 60 60 58 58 56 51 46 40 36 36 27 23 21 20 14 13 11 14 11 5 2 4 6 12 15 19 26 25 29 33 38 42 42 43 48 47 45 44 42 38 36 35 34 33 32
60 58 61 63 60 57 58 60 57 50 42 36 34 36 29 24 24 23 18 13 11 17 11 7 5 5 3 9 12 14 23 26 29 27 32 37 39 39 38 40 43 45 46 43 40 36 37 37 37
61 61 56 55 57 57 57 55 52 47 43 39 35 35 31 26 26 24 22 20 17 18 14 8 9 7 2 5 8 11 18 19 22 26 27 31 34 35 37 38 38 39 39 40 41 42 43 40 34
64 62 59 58 58 57 56 57 49 48 43 41 36 35 35 31 28 24 15 10 12 14 13 11 12 10 4 2 5 9 15 16 19 19 25 29 32 33 33 35 36 37 38 37 36 38 40 43 45
64 66 62 59 59 59 56 55 51 48 46 42 40 36 37 34 31 28 24 14 10 12 16 13 16 14 7 3 4 9 15 20 21 22 25 29 31 31 32 34 35 36 37 37 39 39 37 37 40
58 64 64 61 59 57 56 52 54 51 49 44 41 39 37 36 32 31 32 25 22 18 17 17 19 16 11 7 6 9 14 16 21 21 23 26 27 29 31 34 36 36 37 37 38 37 38 38 34
50 55 59 60 60 58 61 57 56 55 48 44 41 39 38 38 34 32 32 27 27 20 20 23 23 19 15 11 8 8 11 13 16 16 18 21 24 26 28 32 35 37 39 40 40 39 40 40 39
44 45 48 51 55 58 60 57 58 55 48 46 44 41 41 39 37 35 33 30 31 28 25 28 26 23 20 15 11 9 8 10 11 12 14 17 21 23 26 29 33 36 38 40 41 42 42 41 41
45 46 44 44 45 56 52 53 56 50 48 48 45 41 40 39 38 35 31 28 29 29 28 30 30 28 24 19 15 12 8 7 7 8 11 14 17 19 22 26 31 34 37 40 41 42 42 42 40
45 44 45 46 49 53 46 50 46 44 44 42 42 39 39 40 35 36 31 27 28 28 30 31 32 32 27 22 19 16 11 7 3 2 6 9 13 16 20 25 30 33 36 39 41 42 42 43 43
49 49 46 42 47 43 44 45 40 38 37 40 38 36 35 35 36 36 34 30 30 31 29 33 35 34 29 24 21 19 14 9 6 3 3 6 10 14 18 23 28 33 36 38 41 43 42 43 45
57 49 42 43 44 42 42 41 42 42 41 39 36 34 33 33 35 35 33 32 31 32 34 39 39 36 33 29 26 22 17 13 10 7 6 7 10 13 17 22 27 30 34 38 40 42 43 44 47
63 56 51 44 44 41 43 45 45 45 40 37 37 34 31 31 31 31 28 30 33 36 36 43 42 40 37 32 28 25 21 16 14 12 11 9 10 14 18 22 26 30 34 37 39 41 42 43 45